date,time,DOY,Ta_1_1_1,RH_1_1_1,LWin_1_1_1,LWout_1_1_1,SWin_1_1_1,SWout_1_1_1,PPFD_1_1_1,SWC_1_1_1,Ts_1_1_1
[yyyy-mm-dd],[HH:MM],[ddd.ddd],[K],[%],[W+1m-2],[W+1m-2],[W+1m-2],[W+1m-2],[µmol+1m-2s-1],[m+3m-3],[K]
2013-01-04,00:30,4.020,262.29966666666672,76.912999999999997,-4.9829999999999988,-9999.0,0.19100000000000003,-1.4013333333333340,1.26666666666666664E-002,-9999.0,279.90999999999991
2013-01-04,01:00,4.041,262.37933333333325,77.487333333333311,-4.0659999999999998,-9999.0,-3.66666666666666669E-002,-0.80700000000000027,5.66666666666666707E-003,-9999.0,279.90999999999991
2013-01-04,01:30,4.062,262.37833333333333,78.027333333333345,-5.6280000000000001,-9999.0,0.25100000000000000,-2.1736666666666666,1.00000000000000019E-002,-9999.0,279.90999999999991
2013-01-04,02:00,4.083,262.07266666666663,79.379666666666694,-5.8633333333333324,-9999.0,0.30333333333333345,-2.3839999999999999,1.16666666666666689E-002,-9999.0,279.90999999999991
2013-01-04,02:30,4.104,261.91433333333333,80.510666666666665,-5.8773333333333335,-9999.0,0.37000000000000000,-2.3603333333333327,1.43333333333333368E-002,-9999.0,279.90999999999991
2013-01-04,03:00,4.124,261.79100000000005,81.416333333333327,-5.6243333333333316,-9999.0,0.35900000000000015,-2.2679999999999998,5.99999999999999926E-003,-9999.0,279.90999999999991
2013-01-04,03:30,4.145,261.73299999999995,82.158666666666662,-5.5620000000000003,-9999.0,0.33433333333333332,-2.2606666666666668,7.00000000000000101E-003,-9999.0,279.90999999999991
2013-01-04,04:00,4.166,261.48600000000005,83.812666666666686,-5.5083333333333320,-9999.0,0.29733333333333334,-2.2333333333333338,1.60000000000000038E-002,-9999.0,279.90999999999991
2013-01-04,04:30,4.187,261.36533333333335,85.470333333333357,-5.5563333333333329,-9999.0,0.36700000000000010,-2.1353333333333335,1.46666666666666664E-002,-9999.0,279.90999999999991
2013-01-04,05:00,4.208,261.38033333333334,86.253333333333316,-5.4563333333333341,-9999.0,0.30199999999999994,-2.0249999999999999,7.66666666666666625E-003,-9999.0,279.90999999999991
2013-01-04,05:30,4.229,261.31833333333338,86.819666666666677,-5.1726666666666672,-9999.0,0.26033333333333331,-1.8550000000000004,1.06666666666666680E-002,-9999.0,279.90999999999991
2013-01-04,06:00,4.249,261.27766666666668,87.127999999999986,-4.7786666666666671,-9999.0,0.21600000000000005,-1.6533333333333335,1.30000000000000046E-002,-9999.0,279.90999999999991
2013-01-04,06:30,4.270,261.25666666666677,87.262999999999991,-5.2360000000000007,-9999.0,0.23066666666666669,-1.9650000000000001,1.13333333333333341E-002,-9999.0,279.90999999999991
2013-01-04,07:00,4.291,261.24099999999999,87.163666666666643,-5.8446666666666678,-9999.0,0.28466666666666662,-2.2796666666666665,2.26666666666666718E-002,-9999.0,279.90999999999991
2013-01-04,07:30,4.312,261.16066666666666,87.126666666666679,-5.9170000000000007,-9999.0,0.38000000000000000,-1.8580000000000005,0.78866666666666663,-9999.0,279.90999999999991
2013-01-04,08:00,4.333,261.19233333333335,86.803000000000011,-6.2546666666666679,-9999.0,2.9880000000000004,9.9496666666666673,18.610000000000003,-9999.0,279.90999999999991
2013-01-04,08:30,4.354,261.52666666666676,85.915000000000006,-6.9523333333333328,-9999.0,12.028666666666668,75.043999999999997,97.533000000000001,-9999.0,279.90999999999991
2013-01-04,09:00,4.374,262.05666666666667,84.886000000000010,-7.3450000000000006,-9999.0,21.461333333333332,156.78433333333336,218.13700000000000,-9999.0,279.90999999999991
2013-01-04,09:30,4.395,262.91000000000003,82.818333333333314,-7.7216666666666667,-9999.0,30.125999999999994,229.53200000000001,332.55599999999993,-9999.0,279.90999999999991
2013-01-04,10:00,4.416,263.79566666666670,80.071666666666673,-7.3803333333333354,-9999.0,38.761333333333326,285.91666666666674,426.03733333333332,-9999.0,279.90999999999991
2013-01-04,10:30,4.437,264.83066666666673,76.565000000000026,-7.6453333333333324,-9999.0,46.257000000000019,319.20533333333327,514.81733333333341,-9999.0,279.90999999999991
2013-01-04,11:00,4.458,266.05833333333328,73.277666666666661,-7.6796666666666651,-9999.0,51.948333333333331,336.23500000000001,592.42966666666666,-9999.0,279.90999999999991
2013-01-04,11:30,4.479,267.45133333333331,70.545666666666662,-7.8596666666666666,-9999.0,55.682666666666670,354.54966666666672,646.51033333333339,-9999.0,279.90999999999991
2013-01-04,12:00,4.499,269.13433333333336,66.881666666666675,-8.6363333333333330,-9999.0,58.841666666666676,367.69400000000007,676.23499999999990,-9999.0,279.90999999999991
2013-01-04,12:30,4.520,270.35366666666664,63.752666666666663,-9.3533333333333317,-9999.0,58.398666666666671,368.09733333333332,680.35066666666671,-9999.0,279.90999999999991
2013-01-04,13:00,4.541,271.15133333333335,61.230666666666671,-9.2784615384615385,-9999.0,55.429666666666662,355.07766666666663,659.41066666666654,-9999.0,279.90999999999991
2013-01-04,13:30,4.562,272.26999999999992,56.961999999999989,-9999.0,-9999.0,50.492999999999988,330.24799999999993,613.26899999999989,-9999.0,279.90999999999991
2013-01-04,14:00,4.583,273.43133333333338,50.982333333333330,-9999.0,-9999.0,43.947333333333333,292.99866666666668,542.20333333333326,-9999.0,279.90999999999991
2013-01-04,14:30,4.604,273.90433333333334,49.079666666666661,-9999.0,-9999.0,34.379666666666679,244.81899999999996,450.30933333333337,-9999.0,279.90999999999991
2013-01-04,15:00,4.624,274.07100000000003,45.956666666666671,-9999.0,-9999.0,27.484999999999999,189.77933333333334,344.38066666666663,-9999.0,279.90999999999991
2013-01-04,15:30,4.645,273.87700000000007,46.545666666666669,-9999.0,-9999.0,19.872333333333334,128.19066666666666,230.93600000000001,-9999.0,279.90999999999991
2013-01-04,16:00,4.666,273.45766666666663,48.508333333333333,-9999.0,-9999.0,11.357666666666663,66.228333333333325,120.77833333333332,-9999.0,279.90999999999991
2013-01-04,16:30,4.687,272.98633333333328,50.421666666666660,-9999.0,-9999.0,3.8569999999999998,13.492333333333335,34.234333333333332,-9999.0,279.90999999999991
2013-01-04,17:00,4.708,272.35800000000006,53.397333333333322,-9999.0,-9999.0,0.67599999999999982,-2.7136666666666671,2.2286666666666664,-9999.0,279.90999999999991
2013-01-04,17:30,4.729,271.78333333333336,56.357999999999997,-9999.0,-9999.0,0.40900000000000003,-3.8239999999999998,2.66666666666666718E-002,-9999.0,279.90999999999991
2013-01-04,18:00,4.749,271.36533333333335,58.591999999999992,-9999.0,-9999.0,0.52500000000000013,-3.9373333333333322,5.66666666666666621E-003,-9999.0,279.90999999999991
2013-01-04,18:30,4.770,270.99133333333344,60.414666666666662,-9999.0,-9999.0,0.69133333333333324,-4.1850000000000005,2.66666666666666658E-003,-9999.0,279.90999999999991
2013-01-04,19:00,4.791,270.62033333333335,62.292999999999992,-9999.0,-9999.0,0.62833333333333330,-3.9720000000000009,6.33333333333333404E-003,-9999.0,279.90999999999991
2013-01-04,19:30,4.812,270.25266666666670,64.386666666666670,-9999.0,-9999.0,0.68633333333333357,-4.0523333333333333,6.66666666666666796E-003,-9999.0,279.90999999999991
2013-01-04,20:00,4.833,269.88166666666672,66.596333333333334,-9.6066666666666674,-9999.0,0.59166666666666667,-3.5993333333333331,7.33333333333333406E-003,-9999.0,279.90999999999991
2013-01-04,20:30,4.854,269.73200000000003,69.113333333333330,-8.4006666666666696,-9999.0,3.00000000000000093E-003,-1.5119999999999998,6.00000000000000099E-003,-9999.0,279.90999999999991
2013-01-04,21:00,4.874,269.75333333333333,72.764666666666670,-7.6386666666666665,-9999.0,-0.27266666666666667,-1.1590000000000003,1.16666666666666689E-002,-9999.0,279.90999999999991
2013-01-04,21:30,4.895,269.66666666666669,77.619000000000000,-6.7310000000000034,-9999.0,-0.41566666666666668,-0.93766666666666654,6.33333333333333231E-003,-9999.0,279.90999999999991
2013-01-04,22:00,4.916,269.46499999999992,79.240666666666669,-6.8760000000000021,-9999.0,-0.52466666666666650,-1.0000000000000000,6.66666666666666883E-003,-9999.0,279.90999999999991
2013-01-04,22:30,4.937,269.26033333333334,78.766333333333336,-6.9173333333333344,-9999.0,-0.55833333333333346,-1.1230000000000000,1.03333333333333350E-002,-9999.0,279.90999999999991
2013-01-04,23:00,4.958,269.05800000000011,78.841999999999999,-7.1116666666666672,-9999.0,-0.48233333333333339,-1.2986666666666666,2.33333333333333309E-003,-9999.0,279.90999999999991
2013-01-04,23:30,4.979,268.86933333333332,78.936999999999983,-7.1690000000000005,-9999.0,-0.49833333333333341,-1.2676666666666667,6.66666666666666623E-003,-9999.0,279.90999999999991
2013-01-05,00:00,5.000,268.71133333333336,79.164333333333332,-8.1840000000000028,-9999.0,-0.59133333333333338,-1.5733333333333333,5.33333333333333316E-003,-9999.0,279.90999999999991
